Regional Weather Roundup
Issued by NWS Cleveland, OH

Home | Current Version | Previous Version | Graphics & Text | Print | Product List | Glossary On
Versions: 1 2 3 4 5 6 7 8 9 10 11 12 13 14 15 16 17 18 19 20 21 22 23 24 25 26 27 28 29 30 31 32 33 34 35 36 37 38 39 40 41 42 43 44 45 46 47 48 49 50
000
ASUS41 KCLE 300710
RWRCLE
OHIO REGIONAL WEATHER ROUNDUP
NATIONAL WEATHER SERVICE WILMINGTON, OH
300 AM EDT SAT AUG 30 2014

NOTE: "FAIR" INDICATES FEW OR NO CLOUDS BELOW 12,000 FEET WITH NO
SIGNIFICANT WEATHER AND/OR OBSTRUCTIONS TO VISIBILITY.

OHZ001>008-015>018-024>027-034-035-043-044-300800-
   NORTHWEST OHIO

CITY           SKY/WX    TMP DP  RH WIND       PRES   REMARKS
DEFIANCE       PTCLDY    73  64  73 S9        29.99F
FINDLAY        CLEAR     73  63  70 S13       30.01F
TOLEDO EXPRESS CLEAR     70  62  76 S5        30.00F
TOLEDO METCALF PTCLDY    71  61  70 S12       30.00F
LIMA           PTCLDY    72  63  73 S9        30.02F
$$

OHZ009>014-019>023-028>033-038-089-300800-
   NORTHEAST OHIO

CITY           SKY/WX    TMP DP  RH WIND       PRES   REMARKS
CLE-HOPKINS    MOCLDY    68  54  60 S9        30.06F
CLE-LAKEFRONT  PTCLDY    71  54  54 SE10      30.03F
CUY CO. ARPT   NOT AVBL
LORAIN-ELYRIA  PTCLDY    70  56  61 S9        30.05F
ASHTABULA      CLEAR     63  55  75 SE8       30.10S
AKRON-CANTON   PTCLDY    68  54  60 S8        30.09S
WOOSTER        CLEAR     61  56  83 S3        30.09F
MANSFIELD      MOCLDY    70  57  63 S9        30.08F
YOUNGSTOWN     PTCLDY    61  55  81 SE8       30.10F
$$

OHZ042-051>053-060>062-070>072-077>081-300800-
  SOUTHWEST OHIO

CITY           SKY/WX    TMP DP  RH WIND       PRES   REMARKS
CINC-COVINGTON CLEAR     72  68  87 S6        30.04F
CINC-LUNKEN    CLEAR     71  70  96 SW3       30.04F
HAMILTON       CLEAR     72  70  93 CALM      30.04F
DAYTON         PTCLDY    71  67  87 S7        30.05F
WRIGHT-PAT AFB PTCLDY    71  67  87 CALM      30.05F
DAYTON GENERAL CLEAR     72  67  84 S7        30.04F
WILMINGTON     CLEAR     70  65  84 S5        30.06F
$$

OHZ036-037-039>041-045>050-054>059-063>069-073>076-082>088-300800-
  CENTRAL AND SOUTHEAST OHIO

CITY           SKY/WX    TMP DP  RH WIND       PRES   REMARKS
COLUMBUS       MOCLDY    75  60  59 SE3       30.06F
OSU AIRPORT    PTCLDY    73  61  65 SE6       30.06F
BOLTON FIELD   PTCLDY    68  63  84 S5        30.06F
RICKENBACK AFB MOCLDY    73  59  62 CALM      30.06S
NEWARK         MOCLDY    66  63  90 CALM      30.07F
MARION         MOCLDY    69  61  75 S8        30.06F
LANCASTER      MOCLDY    71  62  73 SE6       30.07F
ZANESVILLE     PTCLDY    66  59  78 CALM      30.08F
NEW PHILLY     CLEAR     61  59  93 CALM      30.10S
$$


USA.gov is the U.S. government's official web portal to all federal, state and local government web resources and services.